Tracking 33744 objects as of 12-Apr-2026
HD Live streaming from Space Station
objects crossing your sky now

CZ-6A DEB

Track CZ-6A DEB now!
10-day predictions


NORAD ID: 54592
Int'l Code: 2022-151MS
Perigee: 595.6 km
Apogee: 660.5 km
Inclination: 98.5 °
Period: 97.1 minutes
Semi major axis: 6999 km
RCS: Unknown
Launch date: November 11, 2022
Source: People's Republic of China (PRC)
Launch site: Taiyaun Space Center, China (TSC)

Note: This is SATELLITE DEBRIS
Your satellite tracking list
Your tracking list is empty




NASA's NSSDC Master Catalog

Two Line Element Set (TLE):
1 54592U 22151MS  26101.57745794  .00019106  00000-0  23280-2 0  9998
2 54592  98.5157 151.0268 0046357 124.8423 235.7161 14.82662202180214
Source of the keplerian elements: AFSPC